Location: Rioux
(40.7500°S, 175.7500°E)
Time: 09:42:28
(UTC+00:00)

Cosmos 1603 - Pass Details

Date: 12 June 2024
Orbit: 829 x 860 km, 71.0° (Epoch: 20 July)

Event Time Altitude Azimuth Distance (km) Brightness Sun altitude
Rises 18:02:30 0° 327° (NNW) 3,397 6.7 -17.5°
Reaches altitude 10° 18:04:59 10° 323° (NW) 2,464 5.9 -17.1°
Maximum altitude 18:10:33 58° 243° (WSW) 983 3.7 -16.1°
Drops below altitude 10° 18:16:09 10° 164° (SSE) 2,475 6.1 -15.1°
Sets 18:18:39 0° 159° (SSE) 3,412 6.9 -14.6°
